15:38
Airports
History
Links
Donate
Help keep this website running!
PayPal
Bitcoin
This page is community maintained. The information is intended for PC simulator navigation or reference.
Always use approved charts for navigation.
SJQE
Bonacin
Bonacin (SJQE)
Piraquara, Paraná, Brazil (83304)
4
Lat/Lng:25° 24' 49" S / 49° 3' 59" W
-25.413611 / -49.066389
Elevation:2999'ft / 914mMSL
ID / ICAO:SJQE
Runways:1
Longest:12-30
Grass 596m / 1,954ft
Nearby Weather14:00 GMT 2018-02-20
Nearby weather at SBBI, Curitiba Bacacheri located 10.4 nautical miles from SJQE
Altimeter: 29.85
Visibility: 6.2 statute miles
Wind: 15 knots (from 320°)
Temp: 23°c / 73°f
Humidity: 73.5%

METAR: SBBI 201400Z 32015G25KT 9999 BKN020 BKN100 23/18 Q1011

(Powered by phpweather)
Runway 12 / 30
Dimensions:595.5 x 18m 1954' x 59'ft
Surface:Grass
Runway 12 [A]Runway 30 [B]
Heading:102°TH 282°TH
Lat:
Lng:
25° 24' 46.9"S
49° 4' 9.53"W
25° 24' 51.1"S
49° 3' 48.47"W
User Notes and Comments
25° 24' 49" S / 49° 3' 59" W
Distance To
Airport ID:
Nearby Airports
(U) Piraquara 5.5 NM
SISY WSW 241°
4 Ultraleve Clube de Curitiba 7.0 NM
SSUL SW 231°
(C) Curitiba Bacacheri 10.4 NM
SBBI ( WX ) W 273°
(C) Afonso Pena 10.4 NM
SBCT ( WX ) SW 219°
4 Max Fontoura 29.0 NM
SSCF W 267°
4 Ely Rego 34.4 NM
SIJR WSW 255°
(C) Paranagua 34.5 NM
SSPG ESE 104°
VFR Chart
Flight Planning at SkyVector.com